Tracking 17636 objects as of 30-April-2016
HD Live streaming from Space Station
objects crossing your sky now

GALAXY 14

Track GALAXY 14 now!
GALAXY 14 is classified as:


NORAD ID: 28790
Int'l Code: 2005-030A
Perigee: 35,859.3 km
Apogee: 35,880.9 km
Inclination: 0.0 °
Period: 1,440.0 minutes
Semi major axis: 42241 km
RCS: 19.9526 m2 (large)
Launch date: August 13, 2005
Source: United States (US)
Launch site: TYURATAM MISSILE AND SPACE COMPLEX (TTMTR)

24 C-band transponders; North America, Caribbean.
Your satellite tracking list
Your tracking list is empty





NASA's NSSDC Master Catalog

Two Line Element Set (TLE):
1 28790U 05030A   16120.03664671  .00000029  00000-0  00000+0 0  9997
2 28790   0.0236   6.6616 0002548  35.1598  63.7988  1.00272412 39196
Source of the keplerian elements: AFSPC

N2YO: 330